Theta_e
307 307 307 307 306 306 306 306 306 306 306 306 306 306 306 307 306 306 307 307 307 307 307 308 307 307 308 308 308 308 306 303 301 302 305 306 303 305 305 304 304 305 307 312 314 313 314 312 312 313 315 314 314 315 316 315 313 314 317 317 314 314 314 313 315 312 311 313 312 313 309 315 335 343 341 341 345 346 346 347 345 345 344 344 345 344 344 344
307 307 307 306 306 306 306 306 306 306 306 306 306 306 306 306 306 306 307 306 307 307 307 307 307 307 307 308 308 307 305 303 303 305 308 304 304 305 304 304 304 305 308 312 314 313 314 312 312 314 314 314 314 314 316 316 314 315 316 315 314 314 314 312 313 311 311 313 312 313 310 312 328 339 337 340 346 345 347 347 345 346 344 343 344 344 344 344
307 307 307 306 306 306 306 305 306 306 306 306 306 306 306 306 306 306 306 306 307 307 307 307 307 307 307 308 307 306 304 303 306 308 308 305 307 305 304 304 303 305 307 311 313 313 313 312 313 313 313 315 314 314 315 316 315 314 314 315 316 314 313 312 312 312 312 311 312 313 310 311 315 320 327 338 345 343 345 348 348 350 347 343 343 344 344 344
306 306 306 306 306 305 305 305 305 306 306 306 305 305 306 306 306 306 306 306 306 307 307 307 307 306 307 307 307 305 303 306 307 307 311 309 310 309 308 305 302 306 308 311 311 309 310 312 313 313 314 315 314 314 315 315 315 314 314 316 315 312 313 314 312 313 311 310 312 311 311 311 310 314 328 338 336 334 338 345 347 348 346 343 342 343 344 344
305 306 306 306 306 305 305 305 305 305 305 305 305 305 305 306 306 306 306 306 306 306 306 306 306 306 307 307 305 303 304 309 304 310 314 309 307 308 312 309 303 306 309 311 309 307 310 312 313 313 314 316 314 314 315 315 313 314 315 316 315 311 314 315 313 312 310 310 310 312 312 310 310 318 333 334 320 321 329 338 344 344 343 342 342 343 344 344
305 305 306 306 305 305 305 305 305 305 305 305 306 305 305 305 305 306 306 306 306 306 306 306 306 306 307 305 304 303 304 304 305 310 312 308 305 304 312 311 304 307 311 311 310 308 311 312 312 312 313 315 316 315 315 313 311 314 314 313 314 312 315 314 312 312 310 310 310 312 310 310 311 314 328 331 317 319 323 334 344 342 342 343 343 342 343 342
305 305 305 305 305 305 304 304 305 305 304 305 305 305 305 305 305 305 306 306 306 305 305 306 306 306 306 304 306 305 303 304 305 307 307 305 304 305 312 310 304 308 311 311 310 310 311 312 311 312 313 314 315 316 314 312 310 314 314 313 313 312 313 312 312 311 309 310 310 311 308 311 312 310 325 329 323 329 330 336 344 342 343 343 342 341 341 342
305 305 305 304 304 305 304 304 304 304 304 304 305 305 305 305 305 305 305 305 305 305 305 305 306 306 305 304 307 305 303 306 302 303 304 303 304 307 310 308 306 309 311 311 311 310 310 311 311 311 313 312 314 316 314 313 312 313 315 313 313 312 312 311 311 310 309 309 308 309 309 311 310 310 319 317 326 341 341 341 343 341 343 342 341 341 341 342
304 305 304 304 304 304 304 304 304 304 304 304 304 305 305 305 305 304 305 305 305 305 305 305 305 306 305 304 305 302 302 304 302 305 307 306 306 308 310 307 308 311 311 311 310 311 311 310 311 311 313 312 313 315 314 315 314 313 314 313 313 313 312 311 310 310 309 308 308 310 311 310 308 309 313 318 332 345 343 342 343 340 341 341 341 341 341 342
304 304 304 304 304 304 304 304 303 303 304 304 304 304 305 305 304 304 304 304 304 305 305 305 305 305 305 304 302 300 303 305 306 311 312 311 308 310 310 306 310 312 310 310 309 311 310 310 312 312 313 312 314 314 312 314 314 312 313 313 314 313 311 310 310 310 308 308 309 311 312 310 308 309 316 332 342 345 343 344 343 342 342 341 342 341 342 342
304 304 304 304 303 303 303 304 304 304 304 304 304 304 304 304 304 304 304 304 304 304 305 305 305 305 305 305 302 298 304 308 310 313 313 312 310 311 308 305 311 313 310 309 309 311 311 311 313 313 314 314 314 313 312 313 312 311 311 312 312 310 310 310 310 309 308 310 310 310 312 310 310 311 313 332 344 345 344 347 343 344 343 341 342 340 342 343
303 303 303 303 303 303 303 304 304 304 304 304 303 304 304 304 304 304 304 304 304 304 304 305 305 306 306 305 304 302 305 311 311 311 313 312 311 311 309 309 312 312 312 310 309 310 310 312 314 314 314 313 313 312 312 311 309 310 310 311 312 311 311 311 310 308 309 311 310 310 312 311 312 314 308 320 341 346 344 347 345 344 343 342 343 340 341 342
303 303 303 303 303 303 303 303 304 304 304 303 303 303 303 303 303 303 303 304 304 304 304 305 305 305 305 304 303 302 303 307 308 308 311 311 311 312 312 313 312 312 314 311 309 310 310 313 315 314 312 312 312 310 310 308 309 310 308 311 312 311 312 311 309 307 310 310 310 310 310 312 311 312 307 311 336 347 344 347 345 345 345 342 342 340 340 341
302 303 302 302 303 303 303 302 303 304 303 303 303 303 303 303 303 303 303 303 304 304 304 305 306 306 305 304 301 301 301 301 302 303 306 308 311 313 314 314 313 312 313 311 311 310 311 314 314 314 312 311 312 309 309 308 309 310 309 310 310 311 310 310 310 309 311 309 309 311 309 311 310 310 308 309 331 347 344 347 346 345 346 343 343 341 340 341
302 302 302 302 302 302 303 303 303 303 303 303 303 303 303 303 303 303 303 304 303 303 304 306 307 307 305 304 301 303 303 302 301 301 302 304 308 312 312 313 314 313 312 311 311 310 310 313 314 315 313 310 311 311 311 309 309 310 310 311 309 309 310 311 311 310 312 310 309 311 310 310 310 314 314 314 332 346 343 345 346 346 346 344 343 342 341 341
301 301 302 302 302 302 303 303 303 303 303 303 303 303 302 302 302 302 303 303 302 303 305 306 307 306 305 303 303 304 304 304 305 304 303 302 305 311 312 311 313 312 312 310 310 310 309 311 312 313 311 309 311 312 311 310 310 310 310 312 310 309 309 310 311 309 310 311 310 311 310 310 314 319 321 319 327 340 343 344 345 346 346 344 344 342 342 341
300 301 302 302 302 302 303 303 303 303 303 303 302 302 301 301 301 302 302 302 303 305 306 306 306 306 306 303 304 304 303 304 306 307 306 302 303 310 311 310 310 310 310 310 310 310 309 310 310 311 310 309 310 311 312 312 311 310 311 312 310 309 309 309 311 310 309 312 312 312 313 317 321 324 327 324 324 331 337 338 342 345 345 345 345 343 343 342
300 301 302 302 302 302 302 303 302 302 302 303 301 301 301 303 303 302 303 304 304 305 306 306 305 306 306 303 304 304 304 305 307 308 307 304 305 310 310 308 309 309 309 309 309 309 309 309 310 312 311 309 309 311 313 313 311 311 311 312 310 309 309 309 310 310 310 312 312 313 319 325 328 328 328 328 327 329 330 329 336 342 344 345 344 344 344 342
301 302 302 302 302 302 302 303 302 301 302 302 300 301 303 305 304 303 305 305 304 301 303 307 305 303 303 304 304 304 305 306 308 309 308 307 308 310 309 308 308 309 309 309 310 309 309 310 311 313 312 310 310 311 312 313 312 311 311 311 310 309 309 310 311 309 309 314 316 320 327 329 330 329 328 329 329 330 329 329 332 336 341 343 343 344 344 343
301 302 302 302 302 302 302 302 301 301 302 301 300 300 302 306 306 305 306 306 304 302 302 305 305 304 304 304 306 306 306 307 309 310 309 308 309 310 309 309 309 309 309 309 310 309 310 313 313 313 313 311 311 313 314 312 311 311 310 310 310 309 310 310 311 309 308 315 322 326 329 328 329 329 329 329 329 330 330 331 331 331 335 338 340 343 343 343
301 302 302 302 302 302 302 302 301 301 301 301 301 299 299 304 305 305 306 305 306 306 305 304 305 306 305 305 306 305 305 307 308 309 309 309 310 311 311 310 310 311 310 310 310 310 311 314 314 312 312 311 310 314 315 312 311 311 310 310 309 309 309 310 310 309 308 317 323 325 327 327 328 330 329 329 330 330 330 331 331 331 331 332 335 337 339 339
301 302 302 301 302 302 302 302 301 301 300 301 301 299 299 302 303 302 304 304 305 306 305 305 304 305 305 305 305 305 305 307 309 309 309 309 310 312 312 310 311 312 310 311 312 312 313 314 314 310 309 310 309 311 314 313 312 312 310 310 309 309 309 310 311 310 309 316 323 325 327 326 327 330 331 330 330 330 330 330 331 331 332 332 333 333 334 335
301 302 302 302 301 301 301 301 301 301 301 301 301 300 299 300 300 301 303 304 304 304 304 305 305 304 304 304 304 304 304 306 308 308 309 310 311 312 312 311 312 312 310 311 313 314 314 314 312 308 308 310 310 310 313 313 312 312 311 309 309 309 310 311 312 311 309 315 322 326 328 327 327 330 331 331 330 330 329 329 330 331 332 332 332 331 331 332
300 301 302 301 301 301 301 301 301 300 300 300 300 300 298 299 301 302 303 305 305 304 304 305 305 305 305 305 305 304 303 305 307 308 309 311 310 311 312 311 312 312 311 312 313 314 313 312 310 307 308 311 311 310 312 312 310 312 312 310 310 310 311 312 312 312 312 317 322 323 325 327 327 329 331 331 330 329 329 329 330 330 330 329 328 328 327 328
300 301 302 301 301 301 301 300 300 300 301 301 301 301 300 301 302 302 304 307 307 305 304 305 305 306 306 305 305 305 304 305 308 308 310 311 311 311 311 311 312 313 311 311 313 314 312 310 308 307 308 309 310 310 311 312 311 311 312 311 311 312 312 312 312 312 313 318 317 313 318 326 327 329 331 330 330 330 329 329 329 329 328 326 326 325 324 324
300 301 301 301 301 301 300 300 301 300 301 300 301 302 302 302 302 302 304 308 309 307 305 306 306 307 307 306 306 307 306 307 309 308 310 312 311 312 312 311 312 312 311 310 313 314 311 308 308 309 308 308 310 310 309 312 311 311 312 311 311 312 313 312 312 311 311 315 314 310 315 325 327 328 330 330 331 330 329 330 329 328 326 324 323 323 322 321
300 300 301 301 301 301 300 300 301 300 300 300 301 302 301 301 301 302 305 307 307 307 307 305 305 306 307 307 307 307 306 308 310 309 309 312 311 311 312 311 311 311 309 311 314 313 311 309 309 309 309 309 311 310 309 310 310 311 312 311 310 311 312 312 311 311 312 313 312 311 315 325 329 328 328 329 332 331 330 330 329 326 324 322 321 320 320 319
300 300 301 300 300 300 300 300 301 300 300 300 301 301 300 301 302 304 306 307 306 307 308 306 305 307 307 308 308 307 307 309 310 309 310 312 311 311 312 312 313 312 309 312 314 313 312 312 310 309 310 310 311 311 310 308 309 311 311 309 310 311 311 311 310 311 313 312 311 313 315 322 329 328 327 329 331 332 332 330 328 326 323 321 320 318 318 317
300 301 301 301 300 300 300 300 300 300 299 300 300 300 300 301 304 306 307 308 309 307 308 308 307 308 308 308 308 307 309 309 309 309 309 311 311 311 312 311 312 311 309 311 313 312 311 312 311 309 310 311 310 310 309 308 309 309 308 309 310 311 311 312 312 312 314 312 312 313 313 320 328 328 327 329 331 333 332 330 328 325 322 320 318 317 316 315
300 301 301 300 300 300 300 300 300 299 298 299 300 299 301 303 307 308 306 309 312 307 306 308 307 308 309 309 308 309 310 308 308 309 309 311 310 309 309 309 310 311 310 311 312 311 310 311 311 310 311 312 309 308 307 308 309 307 308 309 310 311 312 313 314 313 313 312 312 314 313 316 325 328 329 329 331 332 331 330 327 323 320 318 317 315 314 313
300 300 300 300 300 300 299 299 300 299 299 300 300 300 304 307 308 309 308 309 310 307 305 307 307 309 310 310 309 309 310 308 308 309 309 310 310 308 309 309 310 311 312 312 312 311 310 310 311 311 311 311 309 307 306 307 307 309 311 311 310 312 313 313 314 313 313 312 314 315 313 316 326 330 331 330 329 328 328 328 326 322 319 316 315 314 313 312
300 300 300 299 300 299 299 300 300 300 300 299 299 303 308 310 309 310 310 310 311 309 307 306 308 310 311 310 310 310 310 308 308 310 310 310 311 310 311 312 312 313 314 314 313 313 311 311 310 310 310 310 310 309 307 307 308 309 311 311 311 313 314 314 313 314 314 312 313 313 314 325 334 331 330 330 329 326 325 324 322 319 317 315 314 313 312 312
299 299 299 299 299 299 299 300 300 300 300 298 301 306 309 310 311 310 309 310 312 313 311 308 308 311 310 309 310 309 309 308 308 309 309 310 311 310 310 310 311 314 315 313 313 313 313 312 310 309 310 311 311 310 309 309 308 310 311 311 311 313 314 315 313 313 313 313 314 314 318 331 335 331 330 329 326 323 321 319 318 316 315 314 313 312 311 311
299 299 299 299 299 299 299 299 299 299 299 300 305 309 309 309 311 311 310 309 311 314 313 310 308 310 310 309 310 309 308 308 308 308 309 309 311 311 310 309 309 313 314 313 313 313 313 312 311 310 311 311 311 311 311 310 309 309 311 311 312 314 315 314 313 313 314 314 317 318 321 330 334 331 330 326 322 320 319 317 316 315 314 313 312 311 311 311
299 299 299 299 299 299 299 298 299 299 299 302 307 309 309 309 310 312 311 309 313 316 314 310 309 310 310 309 309 309 309 309 308 307 308 310 311 311 311 309 309 312 312 312 312 311 312 312 312 310 310 310 311 311 310 310 310 309 309 311 313 313 315 314 312 314 316 316 318 322 326 329 330 328 326 323 321 319 317 316 315 315 313 312 312 311 311 310
300 299 300 300 300 299 298 298 300 300 299 304 308 309 309 309 309 312 313 311 314 316 313 310 309 311 310 309 309 309 309 309 309 309 309 309 310 310 311 310 309 310 312 313 314 312 311 312 312 310 309 309 310 310 310 310 312 310 309 311 311 311 316 315 311 312 316 317 318 321 329 331 328 329 326 322 321 319 317 316 315 315 313 312 311 311 310 310
300 300 300 301 301 300 299 299 300 300 301 306 309 309 309 308 310 313 313 312 313 314 313 310 309 311 310 309 310 309 309 309 309 310 309 309 310 310 310 310 309 309 311 314 314 313 312 313 312 310 310 310 310 309 309 310 311 311 311 312 310 309 313 315 313 312 313 319 321 322 331 332 330 332 328 323 322 320 318 317 315 314 313 312 311 310 309 309
300 301 302 303 303 303 301 300 300 300 304 308 309 310 309 309 313 314 312 311 312 312 311 310 310 310 309 310 310 309 309 310 309 310 309 310 313 311 309 311 310 309 310 312 313 312 313 314 312 311 311 312 311 310 310 310 310 310 311 311 310 312 313 312 314 313 313 320 323 325 329 330 329 330 330 327 324 320 318 316 315 314 312 311 310 310 309 308
301 302 304 304 304 304 301 300 300 302 307 309 309 309 309 310 314 314 311 309 310 310 311 310 310 309 309 311 310 308 310 310 310 311 309 311 315 313 312 313 311 310 310 310 312 313 314 315 313 312 313 312 314 314 312 311 310 310 311 311 312 314 313 313 314 313 315 321 323 327 328 327 328 328 329 328 323 319 318 315 314 313 312 311 310 309 308 307
302 304 306 304 303 303 300 300 303 306 308 309 308 308 307 307 310 311 309 308 308 309 310 309 308 308 310 310 309 309 310 310 310 312 312 314 316 314 314 316 313 312 310 308 312 315 315 317 316 316 315 314 315 317 315 313 311 311 312 312 313 312 311 312 313 312 315 321 323 327 327 326 326 325 327 326 320 318 316 314 314 312 311 310 309 308 307 306
303 307 307 303 302 301 301 303 307 309 309 308 308 307 306 307 308 308 308 307 307 307 308 307 307 308 310 310 309 312 314 312 313 317 316 315 316 314 314 317 316 313 309 308 312 316 316 317 320 321 320 319 319 317 316 315 313 313 314 314 313 313 312 312 313 313 315 319 322 324 326 327 323 322 324 321 318 316 314 313 313 311 310 309 308 307 306 305
303 308 307 303 302 301 303 307 309 309 309 308 307 306 307 308 308 308 307 306 306 306 306 306 306 307 309 310 312 316 317 316 317 320 318 316 319 318 316 317 317 312 311 312 314 318 319 320 321 322 321 320 318 315 314 315 314 315 316 315 313 315 315 313 315 317 315 317 321 321 325 327 321 319 320 317 315 315 313 313 312 310 309 308 306 306 304 304
303 307 305 302 302 302 304 307 309 309 310 309 307 304 305 307 307 307 306 305 305 305 305 306 307 307 309 312 315 317 317 317 317 318 319 319 319 318 318 319 315 312 314 316 315 319 321 321 321 320 318 317 314 313 313 315 316 319 319 316 315 316 317 317 319 320 318 319 321 320 324 325 320 317 317 315 314 313 312 311 310 309 308 306 305 304 303 303
304 306 305 303 302 303 306 308 309 309 309 309 307 304 304 304 304 304 305 304 304 305 307 308 308 309 311 313 316 316 317 319 318 317 319 321 319 318 319 320 316 316 319 317 315 318 319 319 320 321 320 319 318 316 316 318 319 320 319 317 316 314 316 319 319 318 319 320 319 318 323 324 319 316 314 313 312 312 311 310 309 308 307 305 304 304 303 303
304 306 306 304 303 304 307 308 309 310 311 311 309 306 304 304 304 304 305 305 305 305 309 310 309 310 312 315 316 316 317 320 320 318 318 320 319 316 317 320 322 324 324 322 320 320 318 317 318 320 322 321 321 320 319 321 322 320 318 317 317 316 318 320 318 316 318 318 317 319 323 321 318 315 314 313 311 310 310 308 307 306 305 304 303 303 303 302
305 307 306 305 304 304 307 309 309 312 313 310 308 306 305 304 306 306 306 307 307 309 311 310 309 312 314 317 319 318 317 319 320 320 319 319 318 314 315 320 324 325 324 323 322 320 318 315 316 320 322 320 320 320 318 320 324 324 320 319 319 316 316 319 317 315 318 318 318 321 321 320 319 316 315 313 311 310 309 307 306 305 304 303 303 302 302 302
307 309 308 308 307 306 308 309 310 313 312 308 308 310 310 308 308 309 308 307 309 314 315 310 310 315 316 318 322 320 317 318 319 319 318 317 316 314 313 316 319 322 324 321 319 319 319 317 317 318 319 318 317 317 317 317 320 321 319 319 318 316 319 325 322 318 318 319 320 321 319 320 319 316 314 312 310 309 307 306 305 304 303 303 302 302 302 302
307 310 309 309 310 310 310 310 311 314 312 308 310 314 315 312 312 311 308 308 309 312 315 314 311 313 315 318 322 320 317 319 320 320 318 316 317 317 315 313 315 319 320 317 315 318 319 318 317 317 316 315 315 316 316 316 316 316 316 317 317 317 322 327 322 316 320 322 322 320 318 319 317 314 312 310 308 307 305 304 303 303 302 302 302 302 301 301
307 309 309 310 311 311 310 310 310 313 313 311 313 315 315 314 313 310 307 309 312 310 312 315 311 309 312 316 320 321 319 320 321 320 320 319 320 322 320 317 315 315 317 318 316 316 317 317 316 316 316 315 315 315 315 315 315 315 314 315 316 316 317 319 317 316 320 322 320 318 317 315 313 311 309 307 305 304 303 302 302 301 301 301 301 301 301 300
307 310 310 312 313 312 312 312 310 311 312 313 314 315 313 313 313 309 305 309 314 312 310 311 309 307 309 312 315 318 318 320 321 320 321 321 320 321 321 319 316 315 316 319 319 317 318 318 316 316 317 316 315 315 315 315 315 315 315 314 315 315 316 316 317 317 318 318 316 314 314 312 309 307 305 304 303 303 302 301 301 301 301 301 300 300 300 300
305 307 309 313 314 313 314 315 313 313 312 312 315 315 313 311 310 309 307 306 309 310 309 309 308 308 309 310 311 311 311 315 318 316 317 318 317 316 317 315 315 319 321 320 319 319 318 317 316 316 319 318 315 315 316 315 315 316 316 316 315 315 316 315 315 315 315 315 314 313 313 311 307 305 304 303 303 302 302 301 301 300 300 300 300 300 300 300
304 306 308 311 312 311 314 316 313 312 312 313 315 315 313 311 310 311 312 308 306 307 308 309 310 310 311 311 311 308 307 309 310 309 309 311 311 310 311 311 311 317 322 319 316 317 318 317 316 317 321 319 316 315 316 317 317 318 315 314 314 314 314 314 313 313 313 313 314 315 313 308 305 304 303 302 302 302 301 301 301 301 301 300 300 300 300 300
Wind_Speed
11 11 11 11 11 11 11 11 11 11 11 11 11 11 11 11 11 12 12 12 12 13 14 14 14 14 14 15 15 16 18 18 19 18 14 18 15 11 12 8 3 7 11 13 16 15 10 7 8 9 7 3 0 2 3 1 1 2 2 2 3 3 2 4 4 2 0 3 6 7 6 3 2 5 3 4 7 8 8 9 9 11 9 10 15 22 22 20
11 11 11 11 11 11 11 11 12 11 11 11 11 11 11 11 11 12 12 12 12 13 13 13 13 14 14 14 15 16 18 18 17 19 23 23 17 17 18 13 7 7 14 17 19 17 10 6 7 8 5 2 0 1 2 1 2 2 2 2 4 3 2 2 2 1 1 4 8 8 4 2 1 5 2 2 5 6 8 9 9 13 12 13 18 21 21 20
12 11 11 12 11 11 11 11 11 11 11 11 11 11 11 11 11 11 12 12 12 12 13 13 13 14 14 14 14 16 16 14 10 11 15 13 12 17 20 20 14 10 13 16 19 17 13 12 12 8 3 2 1 1 3 2 3 2 2 4 4 2 3 3 3 4 3 4 7 7 4 3 1 2 1 3 6 4 5 7 8 10 12 14 16 19 20 20
12 11 12 12 12 12 12 12 12 11 11 11 11 11 11 11 11 11 12 12 11 12 12 13 13 13 14 13 13 14 12 7 4 2 1 3 5 6 12 20 18 13 12 14 16 13 13 16 13 5 3 2 1 2 4 4 2 2 3 4 2 2 3 3 5 5 3 3 3 5 5 4 3 2 2 6 6 1 2 6 8 12 16 16 16 18 19 18
13 12 11 12 12 11 12 12 11 11 11 11 11 11 11 11 11 11 11 11 11 11 12 12 13 13 13 13 12 11 7 2 1 2 4 5 11 9 6 15 18 16 15 16 14 11 13 14 8 3 2 3 3 3 4 4 3 3 3 4 2 2 4 3 2 3 1 1 2 4 5 3 3 2 3 4 3 3 1 5 12 16 18 18 18 18 18 16
13 12 11 11 11 11 11 12 12 11 12 12 11 11 11 11 11 11 11 11 11 11 11 11 12 12 13 12 9 5 2 3 2 1 1 8 15 14 6 13 19 21 20 17 15 14 13 10 7 6 3 3 6 5 3 3 3 4 3 2 4 4 5 4 0 3 2 1 3 3 3 2 3 2 1 2 1 3 2 5 14 16 17 19 19 18 17 16
13 12 12 11 11 11 11 12 12 12 12 12 12 11 11 11 11 11 11 11 11 10 10 10 11 12 12 9 4 2 1 6 8 6 9 17 17 13 4 14 23 26 22 17 14 11 10 10 9 6 6 4 5 6 3 4 3 4 4 3 4 4 6 5 4 4 1 3 5 2 1 1 2 2 1 2 2 3 1 8 15 16 18 18 17 16 16 16
12 12 12 12 13 12 13 13 12 12 12 12 12 11 11 11 11 11 11 11 11 10 10 9 9 10 9 5 1 1 1 9 13 13 16 18 15 10 4 18 25 26 23 19 15 11 9 11 9 5 6 5 4 7 4 4 5 5 6 3 3 3 5 5 6 5 2 4 5 3 2 3 3 0 1 1 5 5 8 13 15 16 17 15 16 16 15 15
12 12 11 12 13 13 14 14 13 12 12 12 12 11 11 11 11 11 11 11 10 9 9 9 8 8 7 3 1 1 4 8 11 13 13 13 9 5 10 19 25 25 20 20 18 14 10 9 8 5 5 4 5 7 5 5 4 6 8 3 4 4 4 4 5 3 1 2 3 4 2 3 2 2 1 4 5 7 12 14 15 16 16 14 14 15 15 14
13 12 12 13 13 14 13 13 13 13 12 12 12 11 12 12 11 11 11 10 9 9 8 7 7 6 5 1 2 3 4 5 7 8 8 8 5 8 15 21 26 24 18 17 17 15 9 6 6 3 3 4 5 5 5 6 3 4 7 5 7 5 3 3 4 3 2 3 4 4 1 4 2 2 1 2 4 9 13 14 14 15 15 14 13 13 14 13
14 13 13 13 14 14 13 12 11 12 12 12 12 12 12 12 12 11 11 10 9 9 7 7 5 3 2 0 3 4 2 3 4 6 4 4 7 12 18 24 26 24 19 13 14 15 8 7 8 2 2 4 5 5 3 5 3 3 5 4 5 4 4 4 4 4 3 2 3 3 1 3 1 2 2 4 7 9 13 15 13 13 13 13 13 12 11 12
14 14 14 14 14 14 13 11 11 11 12 12 12 12 12 12 12 11 11 10 9 8 7 6 3 1 1 1 6 11 4 2 3 7 6 0 8 11 14 24 25 23 22 12 9 14 9 10 11 3 1 4 6 4 3 4 3 3 3 3 2 1 3 3 2 2 1 0 2 4 2 1 1 2 4 2 6 10 12 14 13 12 11 11 12 11 10 11
14 15 14 14 14 13 12 12 11 11 11 12 13 13 13 13 12 11 11 10 9 7 7 6 3 3 2 1 10 15 11 8 7 5 2 0 5 6 9 21 21 17 18 12 11 14 9 9 10 3 2 4 3 1 2 3 1 3 3 2 1 0 1 0 2 0 2 0 1 3 2 2 3 7 9 5 4 10 11 12 13 11 11 11 11 10 10 12
14 14 15 14 14 13 12 11 12 12 12 13 14 13 14 14 13 12 11 10 8 7 6 4 3 3 3 6 11 11 12 14 15 17 13 7 5 4 6 16 17 11 9 6 9 16 10 5 5 4 2 2 1 0 2 3 1 2 3 1 1 2 2 2 2 1 2 1 2 3 1 3 7 11 11 6 3 7 8 11 12 11 11 10 10 10 10 12
14 14 15 14 14 14 12 11 11 12 12 13 13 14 15 15 14 13 11 10 8 6 4 3 5 3 1 9 12 9 11 14 18 25 21 13 10 6 6 13 14 10 8 5 5 12 11 3 3 4 1 0 1 1 1 2 2 1 3 3 1 2 1 3 2 0 1 2 3 2 1 4 6 12 13 8 0 4 3 7 9 10 11 10 9 10 9 10
16 15 15 14 13 13 12 11 11 11 12 13 14 15 16 16 15 14 11 9 6 4 3 3 6 4 2 5 4 4 8 10 13 17 18 17 14 9 9 11 10 8 8 5 3 6 8 3 0 1 1 1 2 2 3 2 1 1 2 3 2 3 1 2 2 2 1 2 2 2 1 3 5 11 13 11 4 2 2 3 7 8 9 9 7 7 8 8
16 15 14 13 12 12 12 11 11 12 12 13 15 17 18 17 15 13 9 6 4 6 5 3 5 5 4 5 2 4 5 8 9 7 13 18 15 13 12 7 6 7 6 4 3 3 5 4 1 1 1 1 2 4 5 4 4 2 0 1 1 2 2 1 1 2 2 1 2 4 4 4 6 9 12 14 9 2 1 1 4 6 6 7 7 7 7 8
15 14 13 12 11 11 12 11 11 13 13 13 16 18 14 9 5 4 6 8 7 6 4 1 4 4 5 6 3 2 3 3 5 5 11 16 16 16 13 7 7 10 7 4 3 2 3 1 1 2 2 2 3 5 6 4 4 5 4 3 2 1 1 1 2 1 3 2 3 6 7 7 8 10 11 12 11 7 6 4 0 4 6 6 6 7 7 8
14 13 12 11 10 10 11 11 11 12 13 13 16 11 3 6 6 7 9 9 6 4 2 4 6 1 2 4 1 4 8 5 3 6 12 17 17 14 10 10 10 10 7 5 3 3 3 2 2 4 4 4 5 6 6 4 5 6 5 4 4 4 2 1 1 1 3 6 7 6 7 8 10 11 11 10 10 11 10 8 6 2 2 4 5 6 6 7
13 12 11 10 10 10 10 10 10 11 12 13 13 7 2 4 4 4 5 6 7 4 1 4 9 4 3 1 3 9 8 2 2 5 15 19 19 14 7 7 7 5 5 7 6 3 3 5 5 5 5 6 6 5 5 4 5 6 5 3 4 4 3 1 1 1 3 6 6 7 11 11 11 11 10 8 10 14 13 11 10 8 5 2 1 3 4 5
12 11 10 10 10 11 10 9 10 11 11 11 10 4 2 2 1 2 3 7 12 11 7 6 10 9 7 3 3 9 5 2 2 3 15 18 19 14 5 5 7 5 4 5 6 3 4 6 5 4 5 6 5 5 6 6 5 6 5 4 2 3 3 1 0 2 2 4 3 5 12 12 10 11 10 10 13 15 13 11 11 11 10 8 8 7 6 4
12 10 10 10 11 10 10 10 10 10 11 10 7 4 5 3 4 4 0 5 9 14 15 10 7 12 15 11 6 4 2 3 4 1 12 15 13 10 4 5 8 6 4 4 6 5 5 6 6 5 5 6 5 4 6 6 4 4 3 3 3 2 1 1 1 3 2 3 5 6 12 10 9 10 11 13 14 12 12 13 13 13 13 12 12 11 10 9
11 10 9 9 9 10 10 11 11 12 12 10 8 7 4 5 3 5 2 3 5 8 12 12 10 12 12 10 7 4 2 4 3 1 11 14 8 7 8 8 8 6 6 8 8 7 6 6 7 7 7 8 6 4 6 6 3 2 3 3 3 1 1 3 3 2 4 3 7 10 11 7 7 9 11 13 12 11 13 15 15 14 14 14 13 12 12 12
11 9 8 8 9 10 10 11 14 14 12 10 12 11 5 3 3 7 1 2 4 4 8 11 10 10 10 7 7 10 5 4 3 2 11 15 6 6 8 7 8 7 6 8 10 8 5 4 7 8 7 8 8 5 7 6 3 2 3 4 3 2 2 2 3 2 4 4 5 8 8 5 7 8 9 10 10 11 13 15 16 14 13 13 13 14 13 13
10 8 7 8 9 9 10 12 11 8 5 7 9 7 3 2 4 3 2 2 3 2 4 8 6 8 11 8 9 10 5 4 6 4 9 13 9 7 6 4 5 7 7 7 9 8 4 4 9 10 7 7 8 6 7 7 5 2 4 5 5 4 3 2 2 3 4 3 3 1 2 2 5 7 8 7 9 11 12 15 15 14 13 13 13 13 13 13
9 8 7 8 8 8 9 8 4 3 4 6 6 2 1 5 4 3 3 2 3 2 4 6 5 8 11 10 9 8 3 4 8 9 10 13 10 6 6 3 1 5 7 7 5 3 3 4 6 9 8 7 7 6 5 6 6 3 4 5 5 4 3 3 2 2 2 3 2 1 1 2 3 5 7 7 9 11 12 15 14 12 12 12 11 12 12 13
8 8 7 8 7 7 6 4 2 4 4 4 5 4 3 8 3 5 3 1 3 2 6 2 3 10 12 11 14 10 3 2 4 8 10 13 9 2 6 7 2 4 4 4 4 2 5 6 4 6 8 7 6 5 5 7 6 3 3 7 7 6 6 5 3 3 1 1 2 1 1 3 3 2 5 4 7 11 12 14 13 11 12 12 12 13 12 13
8 8 7 7 7 6 7 7 7 7 6 3 5 4 9 8 2 5 2 1 2 3 6 2 3 8 7 11 17 9 2 4 6 6 10 15 8 2 6 9 7 8 5 5 7 3 5 9 8 9 7 6 6 5 7 9 5 2 4 7 7 5 6 5 3 3 1 1 3 2 1 2 3 1 2 1 5 10 11 12 12 12 12 12 12 13 13 12
8 7 7 7 8 9 10 11 10 10 8 5 6 9 12 4 6 3 1 2 2 1 4 5 6 6 5 9 14 6 1 3 3 4 8 12 6 1 4 6 7 10 4 3 6 3 3 8 10 10 7 6 6 5 10 12 5 3 7 6 4 3 3 3 3 2 1 3 4 3 2 1 3 0 0 2 4 7 8 9 10 11 11 12 12 13 13 11
7 6 6 6 8 9 8 12 16 15 10 7 9 12 6 4 4 2 3 2 2 1 3 4 5 7 10 12 9 6 4 2 2 6 6 5 3 2 2 3 5 8 3 0 3 2 1 1 4 6 5 5 5 4 6 7 6 8 9 7 5 4 2 2 1 0 2 4 1 1 4 1 3 1 1 2 3 5 6 7 9 10 11 11 11 12 12 12
7 7 7 7 9 9 5 7 10 7 5 6 11 8 2 4 1 2 5 1 1 2 3 3 4 8 15 14 9 7 3 2 6 10 8 5 4 3 4 4 3 5 4 3 3 0 2 3 3 3 2 3 6 5 2 3 6 6 6 5 5 3 1 2 2 1 5 4 1 1 4 1 2 2 3 4 6 8 7 7 9 10 11 10 10 11 12 11
8 9 9 10 11 12 10 6 3 5 1 11 11 3 4 3 2 3 2 2 1 2 2 4 6 9 13 12 10 10 6 3 6 11 11 9 7 5 6 6 4 5 6 6 4 0 1 4 2 1 1 3 6 6 3 3 4 3 4 8 7 4 4 4 3 3 4 2 1 1 3 2 4 4 6 8 9 9 8 8 9 9 9 10 11 12 11 11
10 11 11 11 13 17 19 15 10 8 11 14 7 1 2 3 4 5 4 1 1 1 2 2 6 9 11 9 9 10 6 4 7 9 10 9 9 6 3 2 5 5 4 5 5 4 4 3 2 2 2 3 7 7 5 4 4 5 6 8 7 5 6 5 3 2 2 1 2 3 3 3 6 5 8 10 9 10 11 10 9 10 10 10 11 11 11 11
11 12 14 15 17 22 24 21 18 16 12 8 1 2 2 4 3 3 5 2 1 2 4 0 6 9 11 8 9 11 4 2 7 8 8 9 8 7 3 3 5 3 3 4 3 5 7 4 5 7 3 4 8 6 6 8 6 5 3 3 4 3 4 4 3 3 3 2 2 3 1 4 4 4 8 11 10 10 11 10 10 10 10 10 11 11 11 11
12 14 16 17 19 22 22 19 15 10 5 2 1 3 4 4 1 1 2 2 2 2 6 2 7 9 8 5 8 12 3 1 8 7 7 9 7 7 6 6 6 3 4 6 2 3 5 3 3 2 1 6 9 4 5 9 7 3 1 2 3 3 3 3 1 1 2 3 2 2 2 2 3 5 8 10 11 10 10 9 10 10 10 10 11 11 11 10
13 14 14 14 16 16 15 13 12 11 7 2 3 5 4 2 1 1 1 2 2 3 7 2 8 8 7 4 8 10 1 2 9 6 5 7 6 6 6 5 6 5 5 5 3 2 3 2 0 1 1 4 6 6 5 4 5 4 3 4 2 1 4 4 2 2 1 3 2 1 2 4 3 5 8 10 10 9 8 9 10 10 11 11 11 10 10 9
11 11 10 11 14 11 8 9 15 14 7 2 5 6 3 2 1 2 1 3 1 3 5 1 5 5 6 5 7 10 4 4 6 3 4 6 3 4 5 3 4 6 6 3 1 2 3 3 1 1 4 0 1 6 5 2 3 5 6 6 3 2 3 2 3 2 1 3 2 0 3 6 5 4 7 9 9 8 7 9 10 10 11 11 11 10 10 10
9 8 8 11 11 8 6 13 18 13 4 3 5 5 2 2 1 2 0 3 0 4 4 1 1 1 5 5 6 10 7 6 5 3 5 4 1 4 6 4 4 7 7 4 1 1 2 2 2 1 3 3 1 5 6 3 1 2 5 6 3 2 3 2 2 3 3 3 2 2 4 5 5 3 6 9 8 7 7 9 10 11 11 10 10 11 11 11
7 5 5 4 4 5 11 18 16 7 2 4 5 3 1 2 2 2 3 4 2 3 2 1 2 1 2 4 6 8 6 6 7 4 3 3 1 2 4 3 4 7 6 4 3 1 0 1 2 1 0 2 1 2 5 4 3 3 5 4 1 0 2 2 1 2 4 4 3 4 3 5 4 1 4 9 9 7 7 9 9 10 10 10 10 10 11 10
4 3 1 2 1 9 17 16 8 2 3 3 2 2 1 3 3 2 3 5 4 2 2 2 1 1 2 2 5 5 3 6 8 3 2 2 2 1 3 2 5 6 2 1 2 1 0 1 3 2 1 2 2 0 2 4 4 4 6 5 2 2 1 2 2 2 2 4 4 4 3 4 2 2 3 9 11 8 9 9 8 8 9 10 10 10 9 9
3 2 1 2 7 16 17 9 3 3 3 2 1 2 2 2 3 5 5 4 4 4 4 5 5 4 2 2 4 3 3 4 4 2 2 3 2 1 3 3 5 7 4 2 2 1 0 1 2 3 1 2 2 2 2 1 1 2 4 4 4 4 4 4 3 1 2 2 4 4 3 3 2 3 3 10 10 9 10 10 9 8 9 10 10 9 9 8
2 1 1 4 13 15 8 2 2 1 1 1 1 1 1 2 1 6 7 4 3 4 5 6 7 6 4 2 3 3 4 3 1 1 2 3 2 1 2 2 3 5 5 3 2 2 1 2 4 4 3 3 3 2 2 2 2 4 3 1 2 2 3 4 4 4 3 2 3 2 2 3 2 3 7 10 9 10 10 9 9 8 9 10 10 9 9 9
1 1 3 8 15 8 1 1 2 1 2 1 1 1 3 2 2 5 6 4 3 3 4 4 5 6 6 3 3 4 5 3 2 1 2 3 2 1 1 3 4 5 4 2 2 2 2 2 4 4 2 2 3 2 2 3 3 4 5 3 1 0 1 2 2 4 4 3 3 3 3 3 2 4 8 10 10 10 9 9 9 8 8 10 9 9 8 9
1 1 3 8 10 1 3 2 2 2 2 0 1 2 3 3 6 8 8 5 3 2 3 3 3 4 4 3 5 5 4 3 2 1 2 2 2 1 1 4 6 4 2 2 3 3 1 1 2 5 5 3 3 3 3 2 2 3 3 3 3 2 4 4 3 3 3 3 2 4 4 3 4 7 8 9 11 10 8 8 8 8 9 9 8 8 8 8
1 1 3 4 5 3 2 1 0 2 2 3 3 3 4 4 6 9 9 8 7 5 3 3 2 2 2 3 5 3 2 3 3 1 1 2 2 2 3 1 2 2 2 3 4 4 3 2 0 3 5 5 4 3 2 2 2 2 3 4 5 3 2 3 4 3 3 3 2 2 4 5 7 9 9 9 10 10 9 9 7 8 9 9 7 7 7 7
0 2 2 1 3 3 2 2 1 1 2 3 3 1 4 6 6 7 10 10 9 6 3 3 3 1 2 4 5 3 3 3 3 3 2 2 2 1 3 3 3 6 9 9 7 5 4 4 5 5 4 3 3 2 2 1 3 3 3 5 6 3 2 1 3 3 4 6 2 1 8 12 11 10 10 9 9 9 9 8 7 8 9 8 7 7 7 7
0 2 2 2 2 2 2 2 1 2 3 3 2 2 5 8 6 5 7 5 3 1 2 3 3 2 4 6 5 3 3 4 4 5 2 1 3 2 2 4 4 6 9 7 5 3 5 4 7 10 10 7 6 6 5 6 7 6 5 6 7 5 2 2 3 2 6 7 3 4 13 16 12 10 11 10 9 9 8 7 8 8 8 8 7 7 7 8
0 1 1 1 1 1 1 0 2 4 4 4 2 2 4 6 6 3 2 1 3 2 1 2 3 2 2 5 5 3 3 5 4 3 3 2 2 2 3 5 5 4 4 5 4 3 6 4 4 10 12 11 9 9 10 12 12 11 11 10 10 8 6 5 4 3 1 1 4 12 17 14 11 10 10 10 9 9 8 8 9 8 8 7 7 7 8 8
0 0 1 1 0 0 1 4 6 4 1 2 2 3 4 6 6 4 2 1 3 3 3 1 4 5 4 3 6 6 5 4 1 1 2 2 2 1 2 4 4 4 3 5 3 2 4 4 6 10 13 13 11 9 11 13 14 14 14 13 12 12 12 10 9 7 6 7 11 18 17 11 8 9 10 10 10 9 9 8 9 9 8 7 7 8 8 8
1 1 1 1 1 1 1 3 6 4 2 2 2 4 3 4 5 2 0 1 1 1 0 4 6 7 7 6 8 6 4 5 8 6 3 3 3 1 1 2 1 3 4 3 2 2 3 4 5 5 9 10 10 11 11 14 16 16 14 12 11 12 12 11 10 10 10 12 15 17 16 10 6 8 11 10 9 9 9 9 9 8 7 7 8 8 8 8
3 3 2 1 1 1 1 1 3 2 1 1 2 3 1 2 4 1 2 3 4 3 3 3 8 9 8 10 10 4 1 3 8 7 3 4 4 2 1 1 1 2 3 3 2 3 3 6 5 2 6 5 6 11 11 12 15 15 13 12 11 9 8 8 7 5 6 12 15 13 10 6 6 9 10 9 10 10 11 10 9 7 7 8 8 8 8 8
2 2 3 0 0 2 1 1 2 1 2 2 3 3 1 3 5 1 3 4 5 5 2 1 6 9 8 11 9 3 1 8 11 8 6 8 10 7 4 5 5 3 3 3 2 2 3 8 5 2 5 5 4 5 3 3 6 7 7 7 7 6 7 7 8 7 6 10 11 7 6 8 9 10 10 10 10 11 10 9 8 7 8 8 7 7 7 7
Wind_Direction
325 324 323 323 321 321 321 325 328 326 326 325 327 328 327 328 326 327 327 327 328 327 329 331 330 329 331 330 330 326 322 321 315 309 271 255 265 253 250 255 224 192 183 167 161 147 127 133 132 139 139 116 53 149 154 127 129 174 174 184 210 202 202 199 198 190 133 334 322 336 348 342 81 92 121 105 81 93 84 60 61 62 71 100 121 136 143 150
321 321 321 323 323 321 321 321 321 322 323 323 324 324 325 325 324 325 325 326 326 325 329 331 330 330 330 331 331 324 322 321 310 292 269 266 271 259 254 246 231 202 178 166 164 155 141 150 146 144 137 127 161 132 169 166 170 182 126 201 220 195 206 209 197 205 253 314 323 328 341 340 61 120 174 161 122 132 102 79 80 86 96 116 130 141 146 155
321 321 322 321 318 318 321 320 318 319 319 320 321 322 322 322 323 323 323 325 324 326 328 330 331 329 330 333 327 321 322 322 302 276 276 280 272 259 251 241 233 208 188 178 170 169 166 161 153 144 126 128 124 133 163 166 183 184 164 220 226 202 245 232 215 234 241 293 319 325 330 335 351 116 252 162 143 174 144 123 117 117 128 134 141 149 154 162
322 322 323 322 318 315 314 314 316 318 318 319 319 320 320 320 322 320 321 323 323 325 327 330 331 328 331 332 320 318 324 310 266 242 28 36 347 291 243 231 220 199 188 177 169 177 170 153 147 137 129 133 98 143 167 180 183 169 193 229 207 120 263 233 211 241 245 256 296 316 323 352 357 338 225 163 134 189 194 146 146 150 148 146 153 159 163 167
321 320 321 320 319 315 312 313 314 314 315 318 317 317 317 318 318 319 320 321 323 323 326 329 329 330 331 328 318 319 324 284 256 143 118 44 2 349 261 216 201 186 172 167 160 155 149 142 138 118 123 143 145 160 179 186 162 168 206 256 233 165 268 266 185 224 220 207 279 317 325 2 331 296 194 178 118 87 53 127 149 154 155 156 160 164 167 169
318 317 318 320 320 317 315 315 315 313 312 314 317 317 315 315 314 316 317 318 322 321 325 328 328 332 329 328 329 333 296 260 330 164 210 332 339 344 296 200 180 172 167 161 146 140 139 142 156 152 148 148 165 181 169 162 179 206 206 264 246 218 254 284 250 213 180 287 295 309 324 351 323 331 186 259 41 62 20 140 149 151 157 160 160 165 170 174
318 320 321 321 320 319 318 312 312 312 310 310 313 316 314 314 313 313 314 316 319 319 324 326 328 332 330 334 339 46 28 264 278 276 301 312 318 334 288 180 170 170 169 157 143 147 145 155 172 154 153 151 178 196 153 133 179 226 216 236 241 219 241 265 281 256 216 265 265 266 348 325 308 360 215 247 35 45 106 146 144 146 155 158 160 168 173 177
319 322 322 322 320 319 315 309 311 313 310 307 308 314 313 311 310 309 311 313 316 318 321 323 329 331 331 346 44 58 271 257 276 290 303 305 306 316 196 166 167 171 170 163 155 152 147 162 171 151 167 164 174 186 154 143 168 214 221 233 244 225 244 262 278 277 269 253 244 213 182 196 223 23 184 319 29 72 122 135 138 144 153 159 165 171 176 180
317 319 320 322 320 315 307 301 304 307 309 307 305 310 309 309 308 306 309 310 313 315 317 322 327 326 328 354 74 264 245 258 292 302 301 295 292 268 178 165 169 170 166 168 162 155 161 173 175 173 179 153 168 175 169 193 186 204 210 220 247 258 289 283 281 277 295 256 214 209 161 140 196 153 97 353 35 107 126 133 139 146 155 162 170 175 178 182
317 318 319 320 319 317 310 299 295 297 305 305 302 304 305 307 304 303 306 305 309 310 312 318 319 324 322 328 156 229 261 289 313 314 303 282 250 185 174 167 168 168 161 164 165 165 168 168 171 186 159 137 168 158 162 199 171 177 195 223 245 269 308 273 273 273 292 263 215 229 143 105 160 174 115 47 110 133 132 135 143 150 157 166 173 179 184 185
317 317 317 316 315 315 310 304 298 297 302 304 301 300 301 302 301 302 302 301 304 304 308 312 315 320 302 20 174 216 286 338 346 6 356 272 202 175 174 169 167 167 160 159 175 175 158 150 163 164 155 158 158 143 179 194 133 157 177 209 239 267 265 246 280 288 297 266 191 199 170 98 135 174 114 122 146 144 137 140 149 158 161 169 175 180 188 191
315 313 313 313 313 311 307 306 305 302 303 302 299 297 299 299 298 298 297 297 298 297 301 300 305 242 173 74 227 228 237 358 25 39 37 23 181 172 174 170 168 170 166 164 180 175 162 169 172 147 134 160 147 150 197 170 122 152 173 216 241 290 252 239 308 302 265 264 178 181 179 84 93 66 41 65 156 148 142 148 155 164 168 171 177 183 193 194
312 311 312 313 312 308 307 306 305 307 305 301 299 297 297 296 294 295 292 292 290 291 295 287 267 213 179 212 242 239 245 260 280 306 341 87 179 173 172 172 172 176 176 174 172 173 175 183 180 148 138 167 147 146 137 116 123 146 144 257 276 287 235 284 14 327 178 132 288 213 196 82 41 19 7 344 191 159 152 161 163 166 170 175 182 190 197 198
311 312 311 311 310 309 311 306 302 305 303 300 299 296 295 294 292 289 287 285 284 285 282 262 211 182 180 251 258 257 257 260 263 256 245 239 215 193 174 177 180 181 175 156 168 182 179 153 160 143 147 186 103 139 123 76 60 147 143 193 316 209 199 32 13 236 170 99 328 255 210 74 40 14 359 348 228 187 168 168 168 167 174 181 186 193 201 205
311 311 309 309 309 309 309 305 302 303 302 301 298 297 296 292 289 286 283 278 272 267 257 215 196 176 226 271 272 269 255 252 252 248 243 232 210 198 184 183 188 188 172 127 142 189 191 148 139 153 142 125 116 174 161 87 53 84 172 175 102 202 210 25 32 334 138 77 3 293 143 94 44 12 1 10 235 238 220 175 177 179 183 186 188 196 206 213
313 309 305 306 306 305 306 308 307 303 302 302 301 300 294 291 288 281 275 268 260 222 200 192 195 196 269 276 278 265 244 236 246 251 241 225 209 192 172 168 175 176 175 158 123 171 183 182 134 137 102 129 164 155 138 148 127 49 217 177 142 192 188 59 74 11 354 118 42 360 106 107 27 4 5 14 12 265 274 190 192 196 192 196 198 203 215 223
313 306 301 302 302 303 306 308 305 302 307 306 303 303 300 296 285 272 260 244 211 170 171 171 181 197 258 270 267 255 244 226 237 248 221 213 204 181 156 136 143 142 143 163 162 133 155 180 205 95 93 109 160 162 166 183 167 131 172 133 128 193 174 140 123 18 358 132 102 62 74 78 27 8 15 16 10 360 335 284 203 205 199 202 209 213 225 236
309 303 300 301 301 303 303 306 303 301 309 308 304 306 312 316 272 220 170 157 135 141 167 170 175 195 250 261 259 251 312 281 237 220 194 191 191 180 155 128 128 130 125 130 162 166 145 186 215 153 154 151 172 182 181 175 157 155 160 153 140 162 175 160 145 19 359 43 92 91 77 55 34 22 24 21 22 39 27 8 209 206 200 197 210 220 226 239
304 301 300 300 303 304 304 311 304 296 304 309 310 314 360 70 92 112 131 150 140 141 193 189 185 200 287 244 281 316 317 313 235 197 174 170 177 171 140 126 127 130 144 144 161 192 157 140 177 178 178 170 172 182 173 159 160 156 159 162 146 148 170 215 195 360 54 70 65 81 83 53 34 25 25 29 36 43 35 26 33 36 194 193 213 224 232 247
300 301 304 303 304 304 303 310 306 300 306 313 322 331 131 116 100 113 137 190 220 232 346 186 203 263 336 194 7 351 333 272 213 187 172 168 163 155 131 122 124 134 159 155 156 177 180 171 179 183 177 170 172 172 143 134 143 129 125 130 128 152 156 187 242 44 85 84 61 76 81 58 41 33 29 40 48 45 39 36 39 38 40 34 306 263 264 270
297 300 305 306 304 303 304 309 305 300 299 303 318 329 237 224 152 143 174 223 242 245 262 228 212 257 278 253 353 10 6 254 307 187 176 171 158 155 160 138 147 164 166 149 131 131 190 186 182 184 174 159 159 150 116 116 125 119 128 122 129 176 148 153 38 26 56 109 114 99 80 61 48 45 39 47 52 48 42 43 47 44 44 36 22 15 359 354
296 297 301 301 300 301 306 307 302 295 288 292 298 279 266 222 115 57 181 244 250 234 242 241 224 261 264 262 288 4 358 262 308 172 168 169 167 168 159 149 165 161 145 145 129 140 185 190 184 172 145 107 100 123 119 119 122 115 129 133 156 172 137 192 73 24 20 116 152 117 84 68 54 54 52 54 56 55 54 55 55 52 51 47 38 33 27 27
296 296 299 303 302 300 302 299 297 295 288 284 266 242 223 167 130 3 327 261 278 220 222 226 220 241 250 259 255 202 218 235 262 247 169 169 178 171 151 157 171 150 155 174 163 159 176 190 179 154 141 118 102 127 122 113 115 120 147 166 165 145 167 173 117 40 19 83 149 125 94 73 57 57 57 58 61 61 61 61 59 57 55 52 48 45 42 38
296 297 300 305 305 300 298 296 294 291 286 272 251 239 221 190 303 325 278 231 287 226 207 206 206 227 231 235 198 179 201 216 214 230 177 174 163 150 157 157 157 153 174 180 165 160 159 155 147 144 160 142 122 140 139 137 157 165 184 184 167 177 213 152 113 119 58 66 148 129 101 67 39 46 54 58 63 61 61 63 59 56 55 53 50 46 45 42
294 294 300 303 303 299 297 299 294 285 278 260 253 248 230 294 324 296 210 259 265 236 207 185 189 226 212 188 163 165 184 215 219 214 180 179 161 140 154 151 160 170 172 160 155 165 158 124 140 149 166 147 134 154 169 166 163 183 219 206 186 183 192 130 117 149 123 137 204 168 123 93 33 41 53 54 62 60 60 63 58 54 51 48 48 45 42 40
287 287 294 296 298 302 302 300 284 280 285 258 247 180 106 359 350 215 206 303 255 206 159 162 183 196 177 164 158 151 159 222 217 201 185 184 172 142 148 151 167 171 159 147 153 171 138 132 153 157 156 153 150 164 185 178 163 184 212 195 180 164 171 166 158 182 163 161 163 306 222 142 73 45 39 40 66 65 61 62 57 54 50 46 48 44 41 38
282 279 283 287 292 301 299 285 278 288 282 248 210 189 312 344 338 209 206 299 259 176 142 155 204 176 167 170 162 151 178 175 162 189 189 183 177 131 159 165 141 153 152 147 169 170 138 143 148 148 152 163 172 175 188 178 164 176 185 170 162 167 188 183 179 215 229 116 113 72 251 137 117 50 10 19 75 70 62 62 56 54 52 47 49 44 40 38
276 274 273 275 281 279 269 275 286 270 251 224 197 232 316 331 179 195 236 210 234 124 137 166 178 160 152 164 163 159 203 142 134 179 186 179 177 81 159 175 161 154 158 177 180 151 149 172 170 154 156 178 187 177 170 170 173 195 170 163 159 168 183 172 190 211 107 207 177 144 219 139 114 30 350 26 84 73 64 64 58 52 49 46 47 45 41 37
272 269 262 268 274 267 263 266 262 252 248 244 252 295 319 303 174 195 277 193 215 124 128 138 147 147 127 155 173 176 135 156 161 149 160 177 187 75 150 172 153 146 145 200 183 141 171 195 178 160 163 188 190 168 167 174 181 146 135 125 107 90 96 123 198 194 121 242 202 152 255 169 114 76 132 110 96 82 70 66 63 55 48 44 43 42 40 35
273 269 264 268 271 266 266 260 254 256 260 265 294 313 317 175 177 205 191 217 253 138 117 146 161 159 147 152 180 190 156 169 140 116 129 165 158 65 97 105 121 139 125 132 169 133 37 177 173 173 174 177 161 137 167 171 138 129 127 112 100 86 69 88 66 97 196 233 191 66 298 258 138 177 186 135 88 86 81 68 62 54 45 40 39 39 36 33
272 271 266 260 261 262 269 265 254 244 244 293 319 321 191 168 253 202 176 217 331 113 124 163 155 151 155 156 167 183 175 129 140 143 146 152 135 114 133 129 114 134 141 169 178 359 44 124 164 205 169 129 118 106 105 124 127 135 133 133 130 111 115 133 91 186 213 213 118 36 311 316 133 172 175 137 89 84 82 67 63 57 46 37 38 40 36 33
269 271 267 259 258 254 244 239 181 136 268 318 328 309 183 180 220 221 223 358 23 169 154 163 161 158 163 160 156 168 169 145 157 156 150 157 159 152 162 164 154 153 167 179 171 180 207 173 193 267 180 152 131 116 104 130 166 173 147 157 161 151 165 174 172 194 208 201 66 333 306 49 87 133 152 132 104 92 81 71 75 72 60 48 43 41 38 34
273 273 267 259 255 249 244 242 239 250 292 316 324 200 195 193 190 221 251 295 102 300 360 158 169 160 160 159 155 163 162 149 168 160 147 155 162 159 164 161 150 151 168 170 157 169 199 238 249 189 199 191 154 142 146 161 187 180 164 174 173 158 166 174 172 175 195 161 60 321 295 109 113 135 136 122 107 96 85 78 81 80 72 63 54 49 46 41
280 275 270 266 261 257 255 252 252 261 285 312 305 156 184 199 199 219 227 267 319 334 339 197 150 148 161 164 157 160 151 136 163 156 147 155 164 169 169 171 162 116 109 157 166 178 183 219 203 174 176 182 168 169 159 152 168 176 163 175 172 165 170 167 164 163 161 131 72 356 330 131 135 133 124 120 106 91 85 80 79 80 74 68 62 53 49 46
282 277 278 274 266 263 261 252 244 238 241 274 189 178 193 196 228 258 205 300 316 342 326 265 146 149 170 163 157 167 166 143 159 150 153 162 164 167 163 176 182 140 137 166 176 180 181 211 203 151 159 175 169 168 141 141 158 180 147 150 176 177 134 109 86 87 116 117 72 19 39 88 101 98 108 114 103 91 87 81 77 75 70 65 58 49 46 45
286 287 284 270 260 265 263 240 210 190 184 178 185 200 220 216 199 185 213 316 318 343 329 260 150 153 171 148 164 181 189 120 158 153 158 162 159 164 163 171 179 170 163 163 158 166 165 172 158 62 107 187 173 151 140 154 154 146 179 180 165 102 110 116 107 46 68 143 111 30 104 119 123 113 113 113 106 102 94 83 79 73 68 62 54 48 44 41
291 293 281 262 263 270 258 201 175 171 175 192 201 205 230 262 219 187 205 12 15 316 328 253 154 164 172 145 165 183 162 123 158 163 150 158 160 164 167 169 178 183 181 168 185 211 176 138 52 127 144 97 292 134 106 20 134 143 177 169 124 71 84 110 126 102 142 146 111 37 154 155 166 145 133 129 115 107 93 80 77 67 61 59 53 49 44 39
294 291 274 267 271 265 216 171 160 160 174 209 215 220 223 245 229 186 287 21 246 271 316 312 248 176 165 153 160 176 165 142 157 153 145 166 212 161 164 165 183 198 198 188 180 211 191 127 46 308 145 97 10 141 118 59 39 129 155 146 134 162 162 148 142 151 155 131 121 151 159 182 186 162 157 149 128 113 92 71 67 60 54 54 50 45 41 35
290 287 281 282 271 222 174 158 153 156 208 203 210 226 216 255 260 246 314 335 298 273 294 247 290 331 179 164 153 164 163 151 155 146 151 185 207 167 178 165 179 207 210 192 166 130 292 163 129 344 42 110 84 170 158 139 71 75 129 129 48 161 161 158 126 150 151 137 152 150 168 204 183 172 194 155 131 124 103 76 66 62 57 55 49 42 37 33
259 263 305 51 177 171 154 149 151 177 213 201 202 230 282 315 299 277 313 324 307 278 267 269 293 290 239 169 152 155 135 140 150 144 166 171 120 172 230 206 176 189 193 143 159 141 13 186 135 99 331 184 148 359 206 161 122 133 150 148 121 77 107 132 80 42 131 144 154 150 178 193 138 349 209 143 127 123 109 95 85 73 66 62 53 45 38 33
251 229 89 86 154 153 146 147 178 195 200 215 223 256 290 333 319 305 304 293 270 250 247 259 262 263 259 161 152 138 97 123 142 123 148 170 150 186 218 214 179 162 139 128 169 187 213 109 123 113 79 110 101 27 312 243 180 151 158 162 145 124 140 154 147 93 72 125 152 154 165 155 47 355 133 127 121 119 112 107 99 83 74 69 57 49 43 34
280 180 72 134 155 152 150 174 184 175 204 213 213 240 355 49 339 308 308 302 269 240 235 244 241 238 236 192 147 125 109 101 102 118 141 156 169 185 182 191 171 148 145 150 157 169 153 88 92 94 83 100 114 90 67 99 117 91 77 115 136 131 150 171 181 163 113 102 127 123 133 129 35 30 107 114 112 115 113 108 104 92 80 73 61 49 43 35
207 78 58 144 156 155 298 211 152 188 213 222 240 110 60 24 311 295 302 311 301 252 241 239 213 209 224 209 133 135 127 82 45 133 131 116 141 209 206 181 159 137 138 140 136 160 156 88 92 103 102 109 126 121 73 70 97 80 56 41 31 29 104 130 152 143 136 139 141 137 141 145 104 80 100 108 108 108 106 103 103 99 85 74 64 53 44 35
224 22 66 153 169 235 316 177 152 199 200 360 20 42 17 314 270 271 279 280 266 277 289 261 202 200 230 187 132 144 145 96 53 89 111 114 135 51 40 182 174 146 146 177 165 168 162 44 115 125 121 111 122 141 128 88 66 66 60 18 356 63 105 107 100 113 139 156 169 169 154 142 135 117 106 106 104 99 92 91 95 98 89 76 67 60 49 39
248 96 71 161 198 280 302 198 166 174 154 53 52 15 327 281 262 259 259 263 257 252 274 280 239 202 207 133 116 110 102 108 110 112 107 109 101 25 33 147 184 130 97 95 101 110 95 47 29 144 142 145 143 140 134 118 91 73 59 16 13 45 96 112 122 149 172 161 166 175 138 128 133 127 117 111 108 101 92 88 87 87 85 78 71 64 52 45
260 112 92 183 215 254 267 260 246 154 95 67 67 321 253 254 277 256 240 255 264 245 232 271 272 209 146 111 99 74 45 67 99 126 143 114 107 17 20 80 101 100 99 83 68 88 102 63 38 60 92 114 106 72 15 81 108 88 43 17 16 358 325 82 137 171 158 143 146 148 139 143 145 138 129 121 111 104 100 97 91 82 81 80 75 66 60 53
15 109 161 182 200 235 260 277 271 107 112 132 148 251 231 241 272 261 229 231 236 218 225 255 263 171 147 129 109 66 32 49 69 102 110 54 106 104 35 72 76 83 94 75 31 75 107 72 48 59 63 60 70 72 60 73 85 79 59 32 21 6 355 97 114 118 132 143 161 151 145 146 147 142 133 124 114 107 102 96 90 84 83 86 80 73 67 57
78 106 197 233 223 212 226 85 78 82 115 160 193 271 248 248 256 250 246 196 129 124 210 275 349 42 123 131 116 95 76 64 37 75 115 92 112 120 66 65 43 29 88 71 16 75 95 76 75 82 73 63 70 81 82 86 85 73 64 52 38 33 46 76 75 42 66 147 143 147 147 140 135 134 124 115 114 108 100 95 92 89 87 86 83 77 68 56
16 128 254 295 316 359 100 122 117 107 146 205 240 264 258 268 263 234 233 141 137 181 198 212 12 33 44 72 112 128 133 124 109 250 151 124 118 106 91 86 46 15 71 76 51 72 87 90 109 99 78 61 64 81 89 92 88 72 61 56 56 59 64 78 87 72 65 87 118 132 130 113 108 116 107 105 108 103 99 94 89 87 85 83 82 75 64 55
345 316 329 14 35 33 46 114 131 149 234 255 258 256 235 261 277 263 217 98 120 265 142 103 77 64 56 62 98 128 173 162 152 164 175 142 124 106 112 135 97 45 51 67 64 33 77 133 153 114 80 62 67 84 89 92 89 77 64 57 60 67 68 72 82 78 81 99 114 118 113 99 96 104 103 105 105 101 99 91 84 83 84 82 79 70 61 56
260 273 309 348 15 31 30 77 115 153 234 220 235 257 222 243 279 317 57 44 61 49 20 87 95 80 65 64 71 75 289 99 109 120 138 126 111 96 44 77 146 108 64 61 63 24 79 137 173 146 90 75 89 100 96 96 91 76 57 48 48 60 70 65 61 67 108 124 121 117 116 120 124 115 107 103 100 98 94 91 89 87 82 78 74 67 60 55
284 306 334 352 60 11 44 104 80 199 233 208 221 249 255 266 285 322 86 36 38 66 21 297 99 86 68 63 55 3 30 89 91 94 99 93 83 76 75 71 65 75 100 100 67 21 105 136 157 145 99 117 155 126 91 113 111 79 42 28 33 62 87 76 55 54 101 132 134 131 135 133 130 125 114 106 103 98 92 92 95 91 85 79 72 67 61 54